Location: Novokuznetsk
(53.7500°N, 87.1000°E)
Time: 00:01:20
(UTC+06:00)

ISS - Pass Details

Date: 23 May 2021
Orbit: 417 x 422 km, 51.6° (Epoch: 16 June)

Event Time Altitude Azimuth Distance (km) Brightness Sun altitude
Rises 23:08:13 0° 278° (W) 2,370 0.4 -14.4°
Reaches altitude 10° 23:10:30 10° 266° (W) 1,504 -0.8 -14.5°
Maximum altitude 23:13:24 27° 207° (SSW) 840 -2.7 -14.6°
Enters shadow 23:13:37 27° 199° (SSW) 845 -2.7 -14.6°
